EZY26ZK EGAA-LERS

Flight info

Callsign EZY26ZK
Flight time N/A
Altitude 37000
Route BELZU DCT DEGOS DCT TUGSI DCT BUNED DCT BANBA DCT PAVLO DCT DOLUR DCT IDRIK DCT NOVAN DCT NENEM DCT BADRU P152 PPN/N0434F380 P152 RONKO M601 POSSY
Aircraft A320/M-SDE2E3FGHIJ1RWXYZ/LB1

Departure

Time 2026-04-28 11:21
Airport Belfast International Airport (EGAA)

Arrival

Time N/A
Airport Reus Airport (LERS)
Time Latitude Longitude Altitude Speed Heading
2026-04-28 11:00 54.66059 -6.21790 272 ft 0 kts 285°
2026-04-28 11:01 54.66059 -6.21791 272 ft 0 kts 285°
2026-04-28 11:13 54.66058 -6.21785 272 ft 3 kts 285°
2026-04-28 11:13 54.66051 -6.21741 278 ft 4 kts 285°
2026-04-28 11:13 54.66051 -6.21739 278 ft 0 kts 285°
2026-04-28 11:14 54.66045 -6.21701 276 ft 2 kts 285°
2026-04-28 11:14 54.66038 -6.21666 276 ft 4 kts 310°
2026-04-28 11:15 54.66017 -6.21640 276 ft 3 kts 336°
2026-04-28 11:15 54.65996 -6.21623 278 ft 4 kts 335°
2026-04-28 11:15 54.65973 -6.21605 274 ft 3 kts 332°
2026-04-28 11:15 54.65954 -6.21577 273 ft 3 kts 293°
2026-04-28 11:16 54.65950 -6.21534 274 ft 4 kts 260°
2026-04-28 11:16 54.65957 -6.21490 276 ft 4 kts 246°
2026-04-28 11:16 54.65964 -6.21463 276 ft 0 kts 245°
2026-04-28 11:18 54.65950 -6.21515 273 ft 17 kts 245°
2026-04-28 11:18 54.65884 -6.21766 272 ft 27 kts 244°
2026-04-28 11:19 54.65797 -6.22091 272 ft 33 kts 246°
2026-04-28 11:19 54.65752 -6.22490 272 ft 36 kts 265°
2026-04-28 11:19 54.65704 -6.22910 272 ft 36 kts 235°
2026-04-28 11:19 54.65571 -6.23229 272 ft 19 kts 233°
2026-04-28 11:20 54.65467 -6.23366 272 ft 24 kts 203°
2026-04-28 11:20 54.65318 -6.23357 272 ft 13 kts 159°
2026-04-28 11:20 54.65306 -6.23227 276 ft 15 kts 65°
2026-04-28 11:20 54.65422 -6.22790 275 ft 75 kts 65°
2026-04-28 11:21 54.65729 -6.21646 275 ft 133 kts 65°
2026-04-28 11:21 54.66129 -6.20172 677 ft 145 kts 66°
2026-04-28 11:21 54.66611 -6.18533 1403 ft 151 kts 65°
2026-04-28 11:21 54.67129 -6.16798 1741 ft 173 kts 65°
2026-04-28 11:22 54.67710 -6.14824 2056 ft 196 kts 64°
2026-04-28 11:22 54.68108 -6.12471 2388 ft 218 kts 91°
2026-04-28 11:22 54.67596 -6.09887 2869 ft 244 kts 127°
2026-04-28 11:22 54.66135 -6.08284 3654 ft 261 kts 163°
2026-04-28 11:23 54.64300 -6.07907 4520 ft 269 kts 176°
2026-04-28 11:23 54.62411 -6.08002 5390 ft 275 kts 181°
2026-04-28 11:23 54.60490 -6.08256 6261 ft 279 kts 182°
2026-04-28 11:23 54.58547 -6.08531 7136 ft 282 kts 181°
2026-04-28 11:24 54.56575 -6.08770 7924 ft 286 kts 180°
2026-04-28 11:24 54.54574 -6.08967 8700 ft 291 kts 180°
2026-04-28 11:24 54.52541 -6.09130 9493 ft 295 kts 179°
2026-04-28 11:24 54.50471 -6.09273 10280 ft 300 kts 179°
2026-04-28 11:25 54.48362 -6.09403 10841 ft 312 kts 179°
2026-04-28 11:25 54.46112 -6.09531 11080 ft 335 kts 179°
2026-04-28 11:25 54.43731 -6.09666 11565 ft 347 kts 179°
2026-04-28 11:25 54.41332 -6.09807 12229 ft 352 kts 179°
2026-04-28 11:26 54.38831 -6.09955 12925 ft 357 kts 178°
2026-04-28 11:26 54.36363 -6.10104 13598 ft 362 kts 178°
2026-04-28 11:26 54.33827 -6.10262 14280 ft 367 kts 178°
2026-04-28 11:26 54.31260 -6.10424 14872 ft 371 kts 178°
2026-04-28 11:27 54.29509 -6.10533 15276 ft 374 kts 178°
2026-04-28 11:27 54.26041 -6.10746 16064 ft 379 kts 178°
2026-04-28 11:27 54.23397 -6.10905 16661 ft 383 kts 178°
2026-04-28 11:27 54.20720 -6.11065 17257 ft 387 kts 178°
2026-04-28 11:28 54.18897 -6.11175 17651 ft 389 kts 178°
2026-04-28 11:28 54.16177 -6.11338 18240 ft 393 kts 178°
2026-04-28 11:28 54.13428 -6.11502 18809 ft 397 kts 178°
2026-04-28 11:28 54.10648 -6.11662 19302 ft 401 kts 178°
2026-04-28 11:29 54.07851 -6.11824 19819 ft 405 kts 178°
2026-04-28 11:29 54.05022 -6.11988 20313 ft 408 kts 178°
2026-04-28 11:29 54.02174 -6.12157 20812 ft 411 kts 178°
2026-04-28 11:29 53.99304 -6.12329 21308 ft 414 kts 178°
2026-04-28 11:30 53.96408 -6.12503 21791 ft 417 kts 178°
2026-04-28 11:30 53.90570 -6.12851 22747 ft 423 kts 178°
2026-04-28 11:30 53.87619 -6.13025 23222 ft 426 kts 178°
2026-04-28 11:31 53.84648 -6.13202 23681 ft 429 kts 178°
2026-04-28 11:31 53.81659 -6.13382 24104 ft 432 kts 178°
2026-04-28 11:31 53.78641 -6.13559 24452 ft 436 kts 178°
2026-04-28 11:31 53.75600 -6.13736 24820 ft 438 kts 178°
2026-04-28 11:32 53.72544 -6.13916 25185 ft 441 kts 178°
2026-04-28 11:32 53.69468 -6.14099 25558 ft 443 kts 178°
2026-04-28 11:32 53.66377 -6.14282 25910 ft 446 kts 178°
2026-04-28 11:32 53.63267 -6.14461 26263 ft 448 kts 178°
2026-04-28 11:33 53.60140 -6.14639 26623 ft 451 kts 178°
2026-04-28 11:33 53.56998 -6.14820 26985 ft 454 kts 178°
2026-04-28 11:33 53.53829 -6.15007 27300 ft 457 kts 178°
2026-04-28 11:33 53.50645 -6.15194 27632 ft 460 kts 178°
2026-04-28 11:34 53.47484 -6.15380 27968 ft 462 kts 178°
2026-04-28 11:34 53.44263 -6.15569 28311 ft 464 kts 178°
2026-04-28 11:34 53.41028 -6.15756 28636 ft 467 kts 178°
2026-04-28 11:34 53.37771 -6.15946 28965 ft 469 kts 178°
2026-04-28 11:35 53.34498 -6.16138 29284 ft 472 kts 178°
2026-04-28 11:35 53.31213 -6.16324 29605 ft 474 kts 178°
2026-04-28 11:35 53.27910 -6.16509 29911 ft 476 kts 178°
2026-04-28 11:35 53.24593 -6.16699 30215 ft 478 kts 178°
2026-04-28 11:36 53.21264 -6.16893 30513 ft 480 kts 178°
2026-04-28 11:36 53.17919 -6.17090 30774 ft 482 kts 178°
2026-04-28 11:36 53.14564 -6.17282 31035 ft 483 kts 178°
2026-04-28 11:36 53.11199 -6.17470 31295 ft 485 kts 178°
2026-04-28 11:37 53.07821 -6.17659 31557 ft 487 kts 178°
2026-04-28 11:37 53.04432 -6.17850 31827 ft 487 kts 178°
2026-04-28 11:37 53.01049 -6.18043 32169 ft 486 kts 177°
2026-04-28 11:37 52.97671 -6.18237 32523 ft 485 kts 177°
2026-04-28 11:38 52.94305 -6.18431 32877 ft 484 kts 177°
2026-04-28 11:38 52.90944 -6.18626 33232 ft 483 kts 177°
2026-04-28 11:38 52.87589 -6.18818 33585 ft 482 kts 177°
2026-04-28 11:38 52.84243 -6.19008 33970 ft 480 kts 176°
2026-04-28 11:39 52.80906 -6.19196 34294 ft 480 kts 176°
2026-04-28 11:39 52.77573 -6.19383 34609 ft 479 kts 176°
2026-04-28 11:39 52.74241 -6.19568 34909 ft 478 kts 176°
2026-04-28 11:39 52.70922 -6.19754 35167 ft 478 kts 176°
2026-04-28 11:40 52.67598 -6.19938 35429 ft 477 kts 176°
2026-04-28 11:40 52.64281 -6.20118 35681 ft 477 kts 176°
2026-04-28 11:40 52.60968 -6.20296 35938 ft 476 kts 176°
2026-04-28 11:40 52.57699 -6.20476 36152 ft 477 kts 176°
2026-04-28 11:41 52.54380 -6.20661 36347 ft 478 kts 176°
2026-04-28 11:41 52.51058 -6.20846 36558 ft 478 kts 176°
2026-04-28 11:41 52.47738 -6.21030 36772 ft 477 kts 176°
2026-04-28 11:41 52.44418 -6.21215 36981 ft 477 kts 176°
2026-04-28 11:42 52.41100 -6.21402 37189 ft 477 kts 177°
2026-04-28 11:42 52.37786 -6.21587 37373 ft 477 kts 177°
2026-04-28 11:42 52.31156 -6.21958 37412 ft 477 kts 177°
2026-04-28 11:43 52.24525 -6.22327 37412 ft 477 kts 177°
2026-04-28 11:43 52.17894 -6.22690 37410 ft 477 kts 176°
2026-04-28 11:44 52.11265 -6.23047 37430 ft 477 kts 176°
2026-04-28 11:44 52.04623 -6.23401 37399 ft 477 kts 176°
2026-04-28 11:45 51.97982 -6.23756 37395 ft 478 kts 176°
2026-04-28 11:45 51.91481 -6.22602 37393 ft 466 kts 161°
2026-04-28 11:46 51.85138 -6.20402 37405 ft 467 kts 161°
2026-04-28 11:46 51.78784 -6.18221 37397 ft 467 kts 162°
2026-04-28 11:47 51.72420 -6.16063 37389 ft 467 kts 162°
2026-04-28 11:47 51.66062 -6.13897 37388 ft 467 kts 161°
2026-04-28 11:48 51.59697 -6.11725 37404 ft 468 kts 162°
2026-04-28 11:48 51.53324 -6.09559 37382 ft 468 kts 162°
2026-04-28 11:49 51.46940 -6.07404 37376 ft 469 kts 162°
2026-04-28 11:49 51.40553 -6.05247 37393 ft 469 kts 162°
2026-04-28 11:50 51.34158 -6.03100 37378 ft 470 kts 162°
2026-04-28 11:50 51.27758 -6.00961 37360 ft 470 kts 162°
2026-04-28 11:51 51.21360 -5.98827 37363 ft 470 kts 162°
2026-04-28 11:51 51.14955 -5.96681 37373 ft 470 kts 162°
2026-04-28 11:52 51.08543 -5.94536 37355 ft 471 kts 162°
2026-04-28 11:52 51.02120 -5.92400 37359 ft 472 kts 162°
2026-04-28 11:53 50.95688 -5.90290 37357 ft 472 kts 163°
2026-04-28 11:53 50.89495 -5.87205 37346 ft 464 kts 153°
2026-04-28 11:54 50.83451 -5.83587 37343 ft 465 kts 153°
2026-04-28 11:54 50.77398 -5.79993 37340 ft 464 kts 153°
2026-04-28 11:55 50.71346 -5.76417 37351 ft 465 kts 154°
2026-04-28 11:55 50.65285 -5.72850 37336 ft 465 kts 154°
2026-04-28 11:56 50.59216 -5.69284 37324 ft 466 kts 154°
2026-04-28 11:56 50.53143 -5.65713 37314 ft 466 kts 154°
2026-04-28 11:57 50.47109 -5.62168 37336 ft 466 kts 154°
2026-04-28 11:57 50.41029 -5.58608 37327 ft 466 kts 154°
2026-04-28 11:58 50.34952 -5.55069 37317 ft 466 kts 154°
2026-04-28 11:58 50.28865 -5.51544 37348 ft 466 kts 155°
2026-04-28 11:59 50.22810 -5.48049 37294 ft 463 kts 156°
2026-04-28 11:59 50.16769 -5.44561 37290 ft 463 kts 155°
2026-04-28 12:00 50.10736 -5.41078 37283 ft 462 kts 155°
2026-04-28 12:00 50.04704 -5.37604 37293 ft 462 kts 156°
2026-04-28 12:01 49.98666 -5.34135 37289 ft 463 kts 156°
2026-04-28 12:01 49.92614 -5.30689 37286 ft 464 kts 156°
2026-04-28 12:02 49.86551 -5.27240 37295 ft 464 kts 156°
2026-04-28 12:02 49.80495 -5.23792 37295 ft 464 kts 156°
2026-04-28 12:03 49.74435 -5.20356 37297 ft 464 kts 156°
2026-04-28 12:03 49.68372 -5.16933 37294 ft 464 kts 156°
2026-04-28 12:04 49.62306 -5.13511 37299 ft 464 kts 157°
2026-04-28 12:04 49.56241 -5.10105 37297 ft 464 kts 157°
2026-04-28 12:05 49.50182 -5.06708 37292 ft 463 kts 157°
2026-04-28 12:05 49.44377 -5.02548 37292 ft 460 kts 149°
2026-04-28 12:06 49.38685 -4.98082 37293 ft 459 kts 150°
2026-04-28 12:06 49.32989 -4.93651 37273 ft 459 kts 150°
2026-04-28 12:07 49.27289 -4.89236 37269 ft 459 kts 150°
2026-04-28 12:07 49.21593 -4.84824 37259 ft 459 kts 150°
2026-04-28 12:08 49.15929 -4.80441 37254 ft 460 kts 150°
2026-04-28 12:08 49.10216 -4.76032 37246 ft 460 kts 151°
2026-04-28 12:09 49.04487 -4.71631 37240 ft 461 kts 151°
2026-04-28 12:09 48.98758 -4.67233 37238 ft 461 kts 151°
2026-04-28 12:10 48.93019 -4.62845 37227 ft 462 kts 151°
2026-04-28 12:10 48.87272 -4.58458 37232 ft 463 kts 151°
2026-04-28 12:11 48.81514 -4.54075 37223 ft 463 kts 151°
2026-04-28 12:11 48.75750 -4.49705 37224 ft 463 kts 151°
2026-04-28 12:12 48.69982 -4.45335 37205 ft 464 kts 151°
2026-04-28 12:12 48.64209 -4.40964 37193 ft 464 kts 151°
2026-04-28 12:13 48.58433 -4.36606 37199 ft 464 kts 152°
2026-04-28 12:13 48.52650 -4.32276 37212 ft 464 kts 152°
2026-04-28 12:14 48.47844 -4.28685 37208 ft 464 kts 152°
2026-04-28 12:14 48.42065 -4.24366 37198 ft 464 kts 152°
2026-04-28 12:15 48.36292 -4.20052 37192 ft 464 kts 152°
2026-04-28 12:15 48.30503 -4.15746 37160 ft 464 kts 153°
2026-04-28 12:16 48.24712 -4.11446 37173 ft 464 kts 153°
2026-04-28 12:16 48.18923 -4.07156 37149 ft 464 kts 153°
2026-04-28 12:17 48.13137 -4.02892 37152 ft 463 kts 154°
2026-04-28 12:17 48.07355 -3.98638 37145 ft 463 kts 154°
2026-04-28 12:18 48.01577 -3.94386 37143 ft 463 kts 154°
2026-04-28 12:18 47.95791 -3.90143 37141 ft 463 kts 154°
2026-04-28 12:19 47.90004 -3.85918 37131 ft 463 kts 154°
2026-04-28 12:19 47.84222 -3.81704 37135 ft 463 kts 154°
2026-04-28 12:20 47.78443 -3.77496 37152 ft 462 kts 154°
2026-04-28 12:20 47.72673 -3.73306 37127 ft 461 kts 155°
2026-04-28 12:21 47.66903 -3.69145 37131 ft 460 kts 155°
2026-04-28 12:21 47.61035 -3.65432 37132 ft 457 kts 166°
2026-04-28 12:22 47.54775 -3.64362 37131 ft 452 kts 184°
2026-04-28 12:22 47.48492 -3.64677 37129 ft 451 kts 184°
2026-04-28 12:23 47.42268 -3.64962 37140 ft 450 kts 184°
2026-04-28 12:23 47.36021 -3.65236 37138 ft 449 kts 184°
2026-04-28 12:24 47.29784 -3.65521 37132 ft 448 kts 185°
2026-04-28 12:24 47.23565 -3.65801 37142 ft 446 kts 185°
2026-04-28 12:25 47.17361 -3.66083 37142 ft 446 kts 185°
2026-04-28 12:25 47.11168 -3.66375 37130 ft 445 kts 186°
2026-04-28 12:26 47.04985 -3.66657 37135 ft 444 kts 186°
2026-04-28 12:26 46.98807 -3.66940 37133 ft 444 kts 186°
2026-04-28 12:27 46.92635 -3.67217 37139 ft 444 kts 186°
2026-04-28 12:27 46.86463 -3.67480 37102 ft 443 kts 186°
2026-04-28 12:28 46.80298 -3.67761 37112 ft 443 kts 186°
2026-04-28 12:28 46.74132 -3.68050 37110 ft 443 kts 186°
2026-04-28 12:29 46.64880 -3.68465 37113 ft 443 kts 186°
2026-04-28 12:30 46.58713 -3.68743 37114 ft 443 kts 186°
2026-04-28 12:30 46.52550 -3.69021 37117 ft 443 kts 186°
2026-04-28 12:31 46.46384 -3.69293 37110 ft 443 kts 186°
2026-04-28 12:31 46.40223 -3.69568 37117 ft 443 kts 186°
2026-04-28 12:32 46.34068 -3.69840 37114 ft 443 kts 185°
2026-04-28 12:32 46.27903 -3.68851 37099 ft 448 kts 174°
2026-04-28 12:33 46.21765 -3.67298 37113 ft 447 kts 174°
2026-04-28 12:33 46.15635 -3.65757 37111 ft 447 kts 174°
2026-04-28 12:34 46.09515 -3.64224 37099 ft 446 kts 174°
2026-04-28 12:34 46.03441 -3.62720 37111 ft 445 kts 174°
2026-04-28 12:35 45.97348 -3.61203 37107 ft 444 kts 174°
2026-04-28 12:35 45.91260 -3.59691 37083 ft 444 kts 174°
2026-04-28 12:36 45.85182 -3.58183 37100 ft 442 kts 175°
2026-04-28 12:36 45.79127 -3.56690 37101 ft 441 kts 175°
2026-04-28 12:37 45.73085 -3.55200 37098 ft 440 kts 175°
2026-04-28 12:37 45.67053 -3.53717 37093 ft 439 kts 175°
2026-04-28 12:38 45.61045 -3.52234 37093 ft 438 kts 175°
2026-04-28 12:38 45.55043 -3.50755 37091 ft 437 kts 175°
2026-04-28 12:39 45.49051 -3.49290 37089 ft 437 kts 175°
2026-04-28 12:39 45.43068 -3.47836 37087 ft 435 kts 175°
2026-04-28 12:40 45.37101 -3.46397 37079 ft 435 kts 175°
2026-04-28 12:40 45.31142 -3.44947 37052 ft 434 kts 175°
2026-04-28 12:41 45.25193 -3.43501 37065 ft 434 kts 175°
2026-04-28 12:41 45.19249 -3.42064 37069 ft 433 kts 175°
2026-04-28 12:42 45.13310 -3.40629 37045 ft 433 kts 175°
2026-04-28 12:42 45.07382 -3.39199 37048 ft 432 kts 175°
2026-04-28 12:43 45.01451 -3.37770 37045 ft 432 kts 175°
2026-04-28 12:43 44.95527 -3.36352 37044 ft 432 kts 175°
2026-04-28 12:44 44.89606 -3.34941 37033 ft 431 kts 175°
2026-04-28 12:44 44.83693 -3.33537 37037 ft 431 kts 175°
2026-04-28 12:45 44.77822 -3.32129 37036 ft 431 kts 175°
2026-04-28 12:45 44.71910 -3.30719 37038 ft 431 kts 175°
2026-04-28 12:46 44.66002 -3.29314 37039 ft 431 kts 175°
2026-04-28 12:46 44.60091 -3.27916 37035 ft 431 kts 175°
2026-04-28 12:47 44.54176 -3.26523 37027 ft 431 kts 175°
2026-04-28 12:47 44.48275 -3.25119 37043 ft 430 kts 175°
2026-04-28 12:48 44.42381 -3.23721 37047 ft 429 kts 175°
2026-04-28 12:48 44.36499 -3.22349 37031 ft 428 kts 175°
2026-04-28 12:49 44.30633 -3.20977 37039 ft 427 kts 175°
2026-04-28 12:49 44.24778 -3.19608 37039 ft 426 kts 175°
2026-04-28 12:50 44.18928 -3.18240 37040 ft 426 kts 175°
2026-04-28 12:50 44.13087 -3.16880 37025 ft 425 kts 175°
2026-04-28 12:51 44.07279 -3.15298 37031 ft 429 kts 166°
2026-04-28 12:51 44.01943 -3.11427 37027 ft 441 kts 146°
2026-04-28 12:52 43.97183 -3.06026 37004 ft 442 kts 145°
2026-04-28 12:52 43.92414 -3.00665 37029 ft 441 kts 146°
2026-04-28 12:53 43.87644 -2.95316 37027 ft 441 kts 146°
2026-04-28 12:53 43.82868 -2.89976 37028 ft 441 kts 146°
2026-04-28 12:54 43.78124 -2.84677 37017 ft 441 kts 146°
2026-04-28 12:54 43.73353 -2.79357 37030 ft 440 kts 146°
2026-04-28 12:55 43.68584 -2.74039 37035 ft 440 kts 145°
2026-04-28 12:55 43.63825 -2.68729 37036 ft 440 kts 146°
2026-04-28 12:56 43.59060 -2.63438 37019 ft 440 kts 146°
2026-04-28 12:56 43.54288 -2.58165 37030 ft 439 kts 146°
2026-04-28 12:57 43.49526 -2.52904 37034 ft 439 kts 146°
2026-04-28 12:57 43.44757 -2.47651 37046 ft 440 kts 146°
2026-04-28 12:58 43.39984 -2.42392 37017 ft 438 kts 145°
2026-04-28 12:58 43.35236 -2.37174 37022 ft 437 kts 146°
2026-04-28 12:59 43.30485 -2.31978 37015 ft 436 kts 146°
2026-04-28 12:59 43.25734 -2.26782 37010 ft 436 kts 146°
2026-04-28 13:00 43.20985 -2.21599 37010 ft 436 kts 146°
2026-04-28 13:00 43.16270 -2.16459 37008 ft 436 kts 146°
2026-04-28 13:01 43.11523 -2.11293 37010 ft 436 kts 146°
2026-04-28 13:01 43.06778 -2.06133 37001 ft 435 kts 146°
2026-04-28 13:02 43.02030 -2.01002 36998 ft 435 kts 146°
2026-04-28 13:02 42.97282 -1.95889 36979 ft 434 kts 146°
2026-04-28 13:03 42.93307 -1.91615 36987 ft 434 kts 145°
2026-04-28 13:03 42.88576 -1.86512 36977 ft 433 kts 145°
2026-04-28 13:04 42.83876 -1.81448 36975 ft 433 kts 146°
2026-04-28 13:04 42.79145 -1.76386 36978 ft 433 kts 146°
2026-04-28 13:05 42.74555 -1.71053 36979 ft 438 kts 135°
2026-04-28 13:05 42.71223 -1.64077 36978 ft 445 kts 118°
2026-04-28 13:06 42.68566 -1.56460 36977 ft 446 kts 119°
2026-04-28 13:06 42.65883 -1.48855 36964 ft 446 kts 119°
2026-04-28 13:07 42.63193 -1.41252 36968 ft 447 kts 119°
2026-04-28 13:07 42.60500 -1.33661 36950 ft 447 kts 119°
2026-04-28 13:08 42.57802 -1.26068 36959 ft 446 kts 119°
2026-04-28 13:08 42.55109 -1.18488 36970 ft 446 kts 119°
2026-04-28 13:09 42.52406 -1.10910 36956 ft 446 kts 119°
2026-04-28 13:09 42.49693 -1.03345 36967 ft 446 kts 119°
2026-04-28 13:10 42.46980 -0.95786 36969 ft 446 kts 119°
2026-04-28 13:10 42.44264 -0.88221 36890 ft 447 kts 119°
2026-04-28 13:10 42.42901 -0.84439 36618 ft 447 kts 119°
2026-04-28 13:11 42.41537 -0.80663 36357 ft 447 kts 119°
2026-04-28 13:11 42.40173 -0.76890 36092 ft 447 kts 119°
2026-04-28 13:11 42.38804 -0.73110 35829 ft 447 kts 119°
2026-04-28 13:11 42.37440 -0.69342 35576 ft 445 kts 119°
2026-04-28 13:12 42.36077 -0.65592 35323 ft 444 kts 119°
2026-04-28 13:12 42.34720 -0.61856 35080 ft 442 kts 119°
2026-04-28 13:12 42.33366 -0.58128 34836 ft 440 kts 119°
2026-04-28 13:12 42.32020 -0.54426 34551 ft 438 kts 119°
2026-04-28 13:13 42.30680 -0.50747 34041 ft 435 kts 119°
2026-04-28 13:13 42.29345 -0.47086 33485 ft 433 kts 119°
2026-04-28 13:13 42.28017 -0.43450 32985 ft 430 kts 119°
2026-04-28 13:13 42.26702 -0.39853 32486 ft 427 kts 119°
2026-04-28 13:14 42.25387 -0.36271 31982 ft 423 kts 119°
2026-04-28 13:14 42.24084 -0.32727 31501 ft 421 kts 119°
2026-04-28 13:14 42.22784 -0.29205 31017 ft 418 kts 119°
2026-04-28 13:14 42.21494 -0.25715 30547 ft 415 kts 119°
2026-04-28 13:15 42.20213 -0.22243 30092 ft 412 kts 119°
2026-04-28 13:15 42.18942 -0.18802 29566 ft 408 kts 119°
2026-04-28 13:15 42.17684 -0.15398 29162 ft 403 kts 119°
2026-04-28 13:15 42.16443 -0.12035 28722 ft 398 kts 119°
2026-04-28 13:16 42.15219 -0.08717 28305 ft 394 kts 119°
2026-04-28 13:16 42.14005 -0.05433 27878 ft 389 kts 119°
2026-04-28 13:16 42.12802 -0.02182 27451 ft 385 kts 119°
2026-04-28 13:16 42.11613 0.01024 27008 ft 381 kts 120°
2026-04-28 13:17 42.10427 0.04207 26585 ft 378 kts 120°
2026-04-28 13:17 42.09250 0.07355 26150 ft 376 kts 120°